KE6LRO Weather Reports


Display with metric or nautical units.
time (UTC)temp
F
wind
direction
speed
MPH
gust
MPH
rain 1hr
in
rain 24hr
in
rain mn
in
humidity
%
barometer
mb
20260507003618 71 76 4.0 5.0 0.00 0.00 0.00 33 1015.5
20260507003113 71 307 5.0 7.0 0.00 0.00 0.00 33 1015.6
20260507002610 71 287 3.0 5.0 0.00 0.00 0.00 33 1015.6
20260507002105 71 330 0.0 3.0 0.00 0.00 0.00 34 1015.6
20260507001602 71 27 5.0 7.0 0.00 0.00 0.00 34 1015.6
20260507001100 72 335 1.0 1.0 0.00 0.00 0.00 33 1015.4
20260507000556 72 356 4.0 10.0 0.00 0.00 0.00 32 1015.5
20260507000051 72 347 1.0 5.0 0.00 0.00 0.00 36 1015.6
20260506235549 72 312 5.0 7.0 0.00 0.00 0.00 31 1015.5
20260506235044 73 7 9.0 14.0 0.00 0.00 0.00 31 1015.6
20260506234542 73 345 2.0 7.0 0.00 0.00 0.00 32 1015.4
20260506234039 73 190 2.0 5.0 0.00 0.00 0.00 31 1015.4
20260506233536 73 347 1.0 7.0 0.00 0.00 0.00 32 1015.6
20260506233033 73 212 7.0 8.0 0.00 0.00 0.00 32 1015.3
20260506232529 72 1 4.0 10.0 0.00 0.00 0.00 33 1015.4
20260506232019 73 350 2.0 7.0 0.00 0.00 0.00 34 1015.4
20260506231516 72 351 0.0 5.0 0.00 0.00 0.00 34 1015.4
20260506231014 72 345 2.0 3.0 0.00 0.00 0.00 34 1015.3
20260506230510 73 4 3.0 7.0 0.00 0.00 0.00 35 1015.4
20260506230008 72 38 1.0 1.0 0.00 0.00 0.00 35 1015.4
20260506225504 72 6 3.0 13.0 0.00 0.00 0.00 36 1015.4
20260506225000 73 321 3.0 8.0 0.00 0.00 0.00 32 1015.5
20260506224457 72 31 9.0 15.0 0.00 0.00 0.00 33 1015.7
20260506223954 72 354 2.0 8.0 0.00 0.00 0.00 34 1015.6
20260506223450 71 31 1.0 5.0 0.00 0.00 0.00 32 1015.5
20260506222947 72 350 6.0 10.0 0.00 0.00 0.00 31 1015.6
20260506222444 72 57 4.0 9.0 0.00 0.00 0.00 32 1015.7
20260506221940 72 350 4.0 9.0 0.00 0.00 0.00 33 1015.5
20260506221438 72 351 6.0 10.0 0.00 0.00 0.00 32 1015.7
20260506220936 72 12 1.0 2.0 0.00 0.00 0.00 34 1015.7
20260506220431 72 316 1.0 5.0 0.00 0.00 0.00 34 1015.9
20260506215927 72 354 0.0 1.0 0.00 0.00 0.00 39 1016.1
20260506215424 72 27 3.0 5.0 0.00 0.00 0.00 33 1015.9
20260506214919 72 17 3.0 8.0 0.00 0.00 0.00 35 1016.3
20260506214417 72 333 1.0 3.0 0.00 0.00 0.00 33 1016.3
20260506213914 71 330 2.0 8.0 0.00 0.00 0.00 35 1016.2
20260506213412 71 21 4.0 7.0 0.00 0.00 0.00 34 1016.3
20260506212909 71 165 5.0 8.0 0.00 0.00 0.00 33 1016.3
20260506212405 74 12 5.0 13.0 0.00 0.00 0.00 33 1016.3
20260506211859 75 332 2.0 2.0 0.00 0.00 0.00 31 1016.5
20260506211356 74 343 1.0 2.0 0.00 0.00 0.00 32 1016.3
20260506210853 73 36 5.0 8.0 0.00 0.00 0.00 32 1016.5
20260506210350 72 38 2.0 2.0 0.00 0.00 0.00 33 1016.5
20260506205847 71 358 1.0 6.0 0.00 0.00 0.00 35 1016.5
20260506205343 73 44 5.0 10.0 0.00 0.00 0.00 33 1016.6
20260506204840 76 313 3.0 5.0 0.00 0.00 0.00 31 1016.8
20260506204337 73 331 1.0 7.0 0.00 0.00 0.00 32 1016.8
20260506203835 74 306 3.0 8.0 0.00 0.00 0.00 32 1016.8
20260506203332 72 291 3.0 6.0 0.00 0.00 0.00 31 1016.8
20260506202829 72 1 1.0 9.0 0.00 0.00 0.00 34 1016.6
20260506202326 72 54 1.0 6.0 0.00 0.00 0.00 31 1016.7
20260506201822 75 342 1.0 3.0 0.00 0.00 0.00 33 1017.1
20260506201320 73 345 5.0 7.0 0.00 0.00 0.00 34 1017.1
20260506200816 73 358 4.0 7.0 0.00 0.00 0.00 34 1016.7
20260506200312 74 334 3.0 5.0 0.00 0.00 0.00 30 1016.8
20260506195809 73 323 1.0 6.0 0.00 0.00 0.00 33 1017.1
20260506195306 73 355 1.0 3.0 0.00 0.00 0.00 34 1017.1
20260506194803 73 325 2.0 6.0 0.00 0.00 0.00 32 1017.1
20260506194259 71 344 1.0 3.0 0.00 0.00 0.00 35 1017.1
20260506193757 70 18 1.0 6.0 0.00 0.00 0.00 36 1017.3
20260506193254 69 325 2.0 3.0 0.00 0.00 0.00 36 1017.5
20260506192750 68 319 2.0 6.0 0.00 0.00 0.00 36 1017.7
20260506192247 68 323 5.0 6.0 0.00 0.00 0.00 36 1017.5
20260506191744 66 334 3.0 5.0 0.00 0.00 0.00 38 1017.9
20260506191240 66 350 2.0 5.0 0.00 0.00 0.00 35 1017.8
20260506190737 66 345 2.0 7.0 0.00 0.00 0.00 38 1018.1
20260506190234 66 344 4.0 6.0 0.00 0.00 0.00 37 1018.1
20260506185731 65 331 3.0 3.0 0.00 0.00 0.00 37 1018.2
20260506185227 63 323 2.0 5.0 0.00 0.00 0.00 39 1018.2
20260506184725 64 333 2.0 5.0 0.00 0.00 0.00 38 1018.6
20260506184222 64 304 1.0 2.0 0.00 0.00 0.00 39 1018.5
20260506183719 62 321 2.0 6.0 0.00 0.00 0.00 39 1018.7
20260506183214 62 325 3.0 8.0 0.00 0.00 0.00 40 1018.6
20260506182712 62 357 3.0 6.0 0.00 0.00 0.00 39 1018.6
20260506182209 62 8 7.0 8.0 0.00 0.00 0.00 39 1018.8
20260506181707 60 319 2.0 6.0 0.00 0.00 0.00 40 1018.9
20260506181204 59 347 0.0 7.0 0.00 0.00 0.00 44 1019.2
20260506180701 60 4 4.0 5.0 0.00 0.00 0.00 39 1018.9
20260506180157 59 332 2.0 5.0 0.00 0.00 0.00 41 1019.2
20260506175653 59 321 0.0 5.0 0.00 0.00 0.00 42 1019.4
20260506175151 58 352 4.0 6.0 0.00 0.00 0.00 42 1019.5
20260506174648 58 17 2.0 5.0 0.00 0.00 0.00 41 1019.4
20260506174145 57 342 2.0 6.0 0.00 0.00 0.00 43 1019.5
20260506173643 58 15 3.0 6.0 0.00 0.00 0.00 42 1019.6
20260506173140 55 332 3.0 6.0 0.00 0.00 0.00 43 1019.7
20260506172637 57 330 1.0 2.0 0.00 0.00 0.00 43 1019.7
20260506172133 57 32 2.0 6.0 0.00 0.00 0.00 43 1019.7
20260506171631 55 333 1.0 3.0 0.00 0.00 0.00 43 1020.1
20260506171128 56 313 2.0 5.0 0.00 0.00 0.00 42 1020.2
20260506170626 55 326 1.0 2.0 0.00 0.00 0.00 45 1020.4
20260506170122 55 332 2.0 6.0 0.00 0.00 0.00 43 1020.3
20260506165621 54 332 1.0 5.0 0.00 0.00 0.00 43 1020.4
20260506165117 53 312 2.0 3.0 0.00 0.00 0.00 45 1020.4
20260506164614 53 326 2.0 3.0 0.00 0.00 0.00 45 1020.5
20260506164112 53 299 3.0 5.0 0.00 0.00 0.00 45 1020.7
20260506163607 53 4 4.0 5.0 0.00 0.00 0.00 45 1020.6
20260506163103 53 342 4.0 5.0 0.00 0.00 0.00 45 1020.8
20260506162600 51 328 0.0 1.0 0.00 0.00 0.00 48 1020.8
20260506162057 51 352 3.0 3.0 0.00 0.00 0.00 47 1021.1
20260506161554 50 13 0.0 3.0 0.00 0.00 0.00 49 1021.1
20260506161046 49 291 0.0 1.0 0.00 0.00 0.00 49 1021.1
20260506160543 50 270 0.0 1.0 0.00 0.00 0.00 47 1021.3
20260506160040 51 336 0.0 2.0 0.00 0.00 0.00 49 1021.4
20260506155538 48 340 0.0 0.0 0.00 0.00 0.00 50 1021.4
20260506153715 42 344 0.0 0.0 0.00 0.00 0.00 68 1021.8
20260506153212 42 326 0.0 0.0 0.00 0.00 0.00 69 1021.7
20260506152709 42 329 0.0 0.0 0.00 0.00 0.00 67 1022.0
20260506152207 43 302 1.0 2.0 0.00 0.00 0.00 65 1021.8
20260506151706 42 343 0.0 0.0 0.00 0.00 0.00 66 1022.0
20260506151201 40 340 0.0 0.0 0.00 0.00 0.00 77 1022.2
20260506150658 37 340 0.0 0.0 0.00 0.00 0.00 84 1022.1
20260506150155 36 340 0.0 0.0 0.00 0.00 0.00 84 1022.1
20260506145652 36 339 0.0 0.0 0.00 0.00 0.00 84 1022.1
20260506145149 37 339 0.0 0.0 0.00 0.00 0.00 83 1022.2
20260506144647 38 340 0.0 0.0 0.00 0.00 0.00 77 1022.2
20260506144143 37 340 0.0 0.0 0.00 0.00 0.00 78 1022.3
20260506143641 36 340 0.0 0.0 0.00 0.00 0.00 80 1022.5
20260506143139 38 339 0.0 0.0 0.00 0.00 0.00 77 1022.4
20260506142637 36 339 0.0 0.0 0.00 0.00 0.00 83 1022.4
20260506142135 35 339 0.0 0.0 0.00 0.00 0.00 83 1022.5
20260506141632 33 338 0.0 0.0 0.00 0.00 0.00 87 1022.6
20260506141130 32 338 0.0 0.0 0.00 0.00 0.00 89 1022.6
20260506140627 30 338 0.0 0.0 0.00 0.00 0.00 94 1022.6
20260506140125 30 338 0.0 0.0 0.00 0.00 0.00 96 1022.5
20260506135621 28 337 0.0 0.0 0.00 0.00 0.00 96 1022.7
20260506135118 28 337 0.0 0.0 0.00 0.00 0.00 96 1022.6
20260506134614 28 337 0.0 0.0 0.00 0.00 0.00 96 1022.6
20260506134110 28 337 0.0 0.0 0.00 0.00 0.00 96 1022.6
20260506133608 28 337 0.0 0.0 0.00 0.00 0.00 96 1022.6
20260506133104 28 337 0.0 0.0 0.00 0.00 0.00 96 1022.6
20260506132601 28 336 0.0 0.0 0.00 0.00 0.00 96 1022.6
20260506132058 28 336 0.0 0.0 0.00 0.00 0.00 96 1022.6
20260506131556 28 336 0.0 0.0 0.00 0.00 0.00 97 1022.7
20260506131052 28 336 0.0 0.0 0.00 0.00 0.00 97 1022.6
20260506130549 27 336 0.0 0.0 0.00 0.00 0.00 97 1022.5
20260506130047 27 338 0.0 0.0 0.00 0.00 0.00 98 1022.7
20260506125545 26 339 0.0 0.0 0.00 0.00 0.00 98 1022.7
20260506125042 26 339 0.0 0.0 0.00 0.00 0.00 98 1022.6
20260506124540 26 339 0.0 0.0 0.00 0.00 0.00 98 1022.5
20260506124037 26 338 0.0 0.0 0.00 0.00 0.00 98 1022.6
20260506123535 26 339 0.0 0.0 0.00 0.00 0.00 98 1022.6
20260506123033 26 337 0.0 0.0 0.00 0.00 0.00 98 1022.7
20260506122529 26 338 0.0 0.0 0.00 0.00 0.00 98 1022.5
20260506122028 26 336 0.0 0.0 0.00 0.00 0.00 98 1022.6
20260506121525 26 329 0.0 1.0 0.00 0.00 0.00 98 1022.4
20260506121021 26 340 0.0 0.0 0.00 0.00 0.00 98 1022.6
20260506120519 25 340 0.0 0.0 0.00 0.00 0.00 98 1022.6
20260506120016 26 340 0.0 0.0 0.00 0.00 0.00 98 1022.3
20260506115514 26 340 0.0 0.0 0.00 0.00 0.00 98 1022.4
20260506115012 26 340 0.0 0.0 0.00 0.00 0.00 98 1022.3
20260506114509 26 340 0.0 0.0 0.00 0.00 0.00 98 1022.2
20260506114008 26 340 0.0 0.0 0.00 0.00 0.00 98 1022.3
20260506113505 26 340 0.0 0.0 0.00 0.00 0.00 98 1022.2
20260506113002 26 340 0.0 0.0 0.00 0.00 0.00 98 1022.3
20260506112459 26 340 0.0 0.0 0.00 0.00 0.00 98 1022.3
20260506111956 26 339 0.0 0.0 0.00 0.00 0.00 98 1022.5
20260506111454 26 340 0.0 0.0 0.00 0.00 0.00 98 1022.5
20260506110951 26 339 0.0 0.0 0.00 0.00 0.00 98 1022.5
20260506110449 26 339 0.0 0.0 0.00 0.00 0.00 97 1022.5
20260506105945 26 339 0.0 0.0 0.00 0.00 0.00 97 1022.5
20260506105441 26 339 0.0 0.0 0.00 0.00 0.00 98 1022.6
20260506104939 26 339 0.0 0.0 0.00 0.00 0.00 97 1022.6
20260506104437 26 339 0.0 0.0 0.00 0.00 0.00 97 1022.6
20260506103935 26 339 0.0 0.0 0.00 0.00 0.00 97 1022.4
20260506103432 26 338 0.0 0.0 0.00 0.00 0.00 97 1022.5
20260506102929 26 339 0.0 0.0 0.00 0.00 0.00 97 1022.5
20260506102427 27 338 0.0 0.0 0.00 0.00 0.00 97 1022.4
20260506101924 26 342 0.0 0.0 0.00 0.00 0.00 97 1022.4
20260506101420 26 344 0.0 0.0 0.00 0.00 0.00 97 1022.3
20260506100918 26 343 0.0 0.0 0.00 0.00 0.00 97 1022.2
20260506100416 26 343 0.0 0.0 0.00 0.00 0.00 97 1022.2
20260506095913 26 343 0.0 0.0 0.00 0.00 0.00 97 1022.5
20260506095412 26 343 0.0 0.0 0.00 0.00 0.00 97 1022.2
20260506094907 27 343 0.0 0.0 0.00 0.00 0.00 97 1022.3
20260506094406 27 343 0.0 0.0 0.00 0.00 0.00 97 1022.5
20260506093904 27 343 0.0 0.0 0.00 0.00 0.00 97 1022.4
20260506093401 27 343 0.0 0.0 0.00 0.00 0.00 96 1022.4
20260506092859 27 343 0.0 0.0 0.00 0.00 0.00 96 1022.3
20260506092357 27 343 0.0 0.0 0.00 0.00 0.00 96 1022.4
20260506091853 27 343 0.0 0.0 0.00 0.00 0.00 96 1022.5
20260506091351 27 343 0.0 0.0 0.00 0.00 0.00 96 1022.3
20260506090848 27 343 0.0 0.0 0.00 0.00 0.00 96 1022.3
20260506090346 27 343 0.0 0.0 0.00 0.00 0.00 95 1022.3
20260506085842 28 343 0.0 0.0 0.00 0.00 0.00 95 1022.4
20260506085338 28 343 0.0 0.0 0.00 0.00 0.00 95 1022.3
20260506084835 28 343 0.0 0.0 0.00 0.00 0.00 95 1022.3
20260506084332 28 343 0.0 0.0 0.00 0.00 0.00 94 1022.2
20260506083828 28 342 0.0 0.0 0.00 0.00 0.00 94 1022.4
20260506083326 28 342 0.0 0.0 0.00 0.00 0.00 94 1022.3
20260506082823 29 343 0.0 0.0 0.00 0.00 0.00 94 1022.3
20260506082320 29 342 0.0 0.0 0.00 0.00 0.00 93 1022.5
20260506081816 29 342 0.0 0.0 0.00 0.00 0.00 93 1022.2
20260506081314 29 342 0.0 0.0 0.00 0.00 0.00 93 1022.3
20260506080812 29 340 0.0 0.0 0.00 0.00 0.00 93 1022.2
20260506080308 30 342 0.0 0.0 0.00 0.00 0.00 92 1022.5
20260506073251 31 332 0.0 0.0 0.00 0.00 0.00 90 1022.4
20260506072749 31 332 0.0 0.0 0.00 0.00 0.00 90 1022.4
20260506072246 31 331 0.0 0.0 0.00 0.00 0.00 89 1022.3
20260506071744 31 338 0.0 0.0 0.00 0.00 0.00 89 1022.4
20260506071241 32 344 0.0 0.0 0.00 0.00 0.00 88 1022.2
20260506070738 32 348 0.0 0.0 0.00 0.00 0.00 87 1022.2
20260506070235 32 315 1.0 1.0 0.00 0.00 0.00 88 1022.3
20260506062212 34 331 0.0 0.0 0.00 0.00 0.00 84 1022.0
20260506061708 34 341 0.0 0.0 0.00 0.00 0.00 83 1021.7
20260506061206 35 341 0.0 0.0 0.00 0.00 0.00 82 1021.7
20260506060705 35 340 0.0 0.0 0.00 0.00 0.00 81 1021.8
20260506060201 36 337 0.0 0.0 0.00 0.00 0.00 82 1021.6
20260506051133 39 14 1.0 1.0 0.00 0.00 0.00 75 1020.9
20260506050631 39 4 0.0 0.0 0.00 0.00 0.00 77 1021.1
20260506050128 39 342 0.0 0.0 0.00 0.00 0.00 74 1021.1
20260506045121 41 298 1.0 5.0 0.00 0.00 0.00 71 1020.9
20260506044619 42 301 1.0 3.0 0.00 0.00 0.00 63 1020.8
20260506044116 42 303 2.0 2.0 0.00 0.00 0.00 67 1020.7
20260506043613 42 247 3.0 3.0 0.00 0.00 0.00 64 1020.8
20260506043111 42 18 1.0 2.0 0.00 0.00 0.00 64 1020.9
20260506042610 43 257 2.0 5.0 0.00 0.00 0.00 64 1020.9
20260506042107 44 258 3.0 5.0 0.00 0.00 0.00 62 1020.5
20260506041606 43 216 2.0 3.0 0.00 0.00 0.00 61 1020.7
20260506041102 43 237 4.0 6.0 0.00 0.00 0.00 59 1020.7
20260506040600 43 254 3.0 6.0 0.00 0.00 0.00 61 1020.6
20260506040056 44 333 0.0 2.0 0.00 0.00 0.00 61 1020.5
20260506035553 44 2 1.0 5.0 0.00 0.00 0.00 65 1020.4
20260506035050 43 351 0.0 2.0 0.00 0.00 0.00 67 1020.3
20260506034547 44 345 1.0 3.0 0.00 0.00 0.00 64 1020.3
20260506034044 43 293 1.0 3.0 0.00 0.00 0.00 62 1020.3
20260506033541 44 338 0.0 6.0 0.00 0.00 0.00 64 1020.4
20260506033038 42 312 0.0 0.0 0.00 0.00 0.00 66 1020.2
20260506032535 43 350 0.0 0.0 0.00 0.00 0.00 63 1020.1
20260506032032 43 358 0.0 0.0 0.00 0.00 0.00 65 1020.1
20260506031530 43 347 0.0 0.0 0.00 0.00 0.00 64 1019.8
20260506031027 44 314 1.0 1.0 0.00 0.00 0.00 64 1020.1
20260506030525 44 321 0.0 0.0 0.00 0.00 0.00 62 1020.1
20260506030022 45 321 1.0 2.0 0.00 0.00 0.00 63 1019.4
20260506025519 45 321 0.0 0.0 0.00 0.00 0.00 61 1019.4
20260506025015 46 333 0.0 0.0 0.00 0.00 0.00 59 1019.5
20260506024512 47 319 1.0 1.0 0.00 0.00 0.00 58 1019.4
20260506024008 48 335 0.0 1.0 0.00 0.00 0.00 56 1019.3
20260506023504 48 343 0.0 0.0 0.00 0.00 0.00 52 1019.4
20260506023001 49 348 0.0 1.0 0.00 0.00 0.00 50 1019.1
20260506022459 48 345 0.0 0.0 0.00 0.00 0.00 51 1019.2
20260506021957 49 340 0.0 0.0 0.00 0.00 0.00 51 1019.1
20260506021454 50 340 0.0 2.0 0.00 0.00 0.00 50 1018.9
20260506020951 51 315 1.0 1.0 0.00 0.00 0.00 49 1019.2
20260506020448 51 318 1.0 1.0 0.00 0.00 0.00 46 1018.8
20260506015945 53 334 0.0 2.0 0.00 0.00 0.00 44 1018.8
20260506015443 53 279 3.0 5.0 0.00 0.00 0.00 42 1018.9
20260506014940 53 302 2.0 2.0 0.00 0.00 0.00 41 1018.7
20260506014437 55 272 2.0 3.0 0.00 0.00 0.00 40 1018.9
20260506013933 57 287 2.0 3.0 0.00 0.00 0.00 37 1018.9
20260506013431 57 329 1.0 3.0 0.00 0.00 0.00 34 1019.1
20260506012927 57 297 4.0 6.0 0.00 0.00 0.00 33 1018.9
20260506012424 57 33 2.0 8.0 0.00 0.00 0.00 33 1018.8
20260506011921 58 353 2.0 15.0 0.00 0.00 0.00 32 1018.8
20260506011418 58 337 2.0 8.0 0.00 0.00 0.00 33 1018.8
20260506010915 58 331 2.0 11.0 0.00 0.00 0.00 33 1018.7
20260506010414 59 316 3.0 10.0 0.00 0.00 0.00 31 1018.7
20260506005910 59 309 1.0 11.0 0.00 0.00 0.00 32 1018.6
20260506005408 59 299 4.0 8.0 0.00 0.00 0.00 32 1018.8
20260506004902 59 339 3.0 8.0 0.00 0.00 0.00 32 1018.6
20260506004401 59 329 3.0 6.0 0.00 0.00 0.00 30 1018.7
20260506003856 60 287 2.0 11.0 0.00 0.00 0.00 31 1018.6